This is the latest recevied weather packets stored in our database for station/object KC3ULW-13. If no packets are shown the sender has not sent any weather packets the latest 10 day(s).
| Time | Temp. | Humidity | Pressure | Rain* | Wind** | Luminosity | Snow |
|---|---|---|---|---|---|---|---|
| 1777940513 | 20.56° C | 53% | 1009.3 hPa | 0 mm | - | 0 W/m² | - |
| 1777940210 | 20.56° C | 53% | 1009.3 hPa | 0 mm | - | 1 W/m² | - |
| 1777939908 | 20.56° C | 53% | 1009.3 hPa | 0 mm | - | 2 W/m² | - |
| 1777939604 | 20.56° C | 52% | 1009.4 hPa | 0 mm | - | 5 W/m² | - |
| 1777939302 | 20.56° C | 52% | 1009.2 hPa | 0 mm | - | 10 W/m² | - |
| 1777938998 | 20.56° C | 52% | 1009.3 hPa | 0 mm | - | 13 W/m² | - |
| 1777938695 | 21.11° C | 52% | 1009.4 hPa | 0 mm | - | 16 W/m² | - |
| 1777938392 | 21.11° C | 51% | 1009.3 hPa | 0 mm | - | 19 W/m² | - |
| 1777938090 | 21.11° C | 52% | 1009.5 hPa | 0 mm | - | 16 W/m² | - |
| 1777937785 | 21.11° C | 52% | 1009.6 hPa | 0 mm | - | 27 W/m² | - |
| 1777937481 | 21.11° C | 52% | 1009.7 hPa | 0 mm | - | 36 W/m² | - |
| 1777937179 | 21.11° C | 51% | 1009.5 hPa | 0 mm | - | 42 W/m² | - |
| 1777936876 | 21.11° C | 52% | 1009.7 hPa | 0 mm | - | 50 W/m² | - |
| 1777936573 | 21.67° C | 53% | 1009.5 hPa | 0 mm | - | 38 W/m² | - |
| 1777936269 | 21.11° C | 53% | 1009.3 hPa | 0 mm | - | 38 W/m² | - |
| 1777935965 | 21.11° C | 53% | 1009.5 hPa | 0 mm | - | 35 W/m² | - |
| 1777935664 | 21.11° C | 54% | 1009.4 hPa | 0 mm | - | 46 W/m² | - |
| 1777935361 | 21.67° C | 56% | 1009.7 hPa | 0 mm | - | 51 W/m² | - |
| 1777935058 | 21.67° C | 56% | 1009.9 hPa | 0 mm | - | 110 W/m² | - |
| 1777934754 | 21.67° C | 55% | 1010 hPa | 0 mm | - | 162 W/m² | - |
| 1777934452 | 22.22° C | 49% | 1010.1 hPa | 0 mm | - | 94 W/m² | - |
| 1777934149 | 22.22° C | 48% | 1009.6 hPa | 0 mm | - | 29 W/m² | - |
| 1777933844 | 22.22° C | 49% | 1009.7 hPa | 0 mm | - | 36 W/m² | - |
| 1777933541 | 22.22° C | 48% | 1009.4 hPa | 0 mm | - | 67 W/m² | - |
| 1777933239 | 22.22° C | 48% | 1009.6 hPa | 0 mm | - | 67 W/m² | - |
* Rain latest hour (hover to see other rain measurements)
** Current wind speed in m/s (hover to see current wind gust speed)